Year,Month,Day,Hour,Minute,Value (Times are PST for temperature in C)
2017,05,28,00,00,10.90
2017,05,28,00,01,10.90
2017,05,28,00,02,10.90
2017,05,28,00,03,10.90
2017,05,28,00,04,10.90
2017,05,28,00,05,10.90
2017,05,28,00,06,10.90
2017,05,28,00,07,10.90
2017,05,28,00,08,10.90
2017,05,28,00,09,10.90
2017,05,28,00,10,10.90
2017,05,28,00,11,10.90
2017,05,28,00,12,10.90
2017,05,28,00,13,10.80
2017,05,28,00,14,10.80
2017,05,28,00,15,10.80
2017,05,28,00,16,10.80
2017,05,28,00,17,10.80
2017,05,28,00,18,10.80
2017,05,28,00,19,10.80
2017,05,28,00,20,10.80
2017,05,28,00,21,10.80
2017,05,28,00,22,10.80
2017,05,28,00,23,10.80
2017,05,28,00,24,10.80
2017,05,28,00,25,10.80
2017,05,28,00,26,10.80
2017,05,28,00,27,10.80
2017,05,28,00,28,10.80
2017,05,28,00,29,10.80
2017,05,28,00,30,10.80
2017,05,28,00,31,10.80
2017,05,28,00,32,10.70
2017,05,28,00,33,10.70
2017,05,28,00,34,10.70
2017,05,28,00,35,10.70
2017,05,28,00,36,10.70
2017,05,28,00,37,10.70
2017,05,28,00,38,10.70
2017,05,28,00,39,10.70
2017,05,28,00,40,10.70
2017,05,28,00,41,10.70
2017,05,28,00,42,10.80
2017,05,28,00,43,10.80
2017,05,28,00,44,10.80
2017,05,28,00,45,10.80
2017,05,28,00,46,10.80
2017,05,28,00,47,10.80
2017,05,28,00,48,10.80
2017,05,28,00,49,10.80
2017,05,28,00,50,10.80
2017,05,28,00,51,10.80
2017,05,28,00,52,10.80
2017,05,28,00,53,10.80
2017,05,28,00,54,10.80
2017,05,28,00,55,10.80
2017,05,28,00,56,10.80
2017,05,28,00,57,10.80
2017,05,28,00,58,10.80
2017,05,28,00,59,10.80
2017,05,28,01,00,10.80
2017,05,28,01,01,10.80
2017,05,28,01,02,10.80
2017,05,28,01,03,10.80
2017,05,28,01,04,10.90
2017,05,28,01,05,10.90
2017,05,28,01,06,10.90
2017,05,28,01,07,10.90
2017,05,28,01,08,10.90
2017,05,28,01,09,10.90
2017,05,28,01,10,10.90
2017,05,28,01,11,10.90
2017,05,28,01,12,10.90
2017,05,28,01,13,10.90
2017,05,28,01,14,10.90
2017,05,28,01,15,10.90
2017,05,28,01,16,10.90
2017,05,28,01,17,10.90
2017,05,28,01,18,10.90
2017,05,28,01,19,10.90
2017,05,28,01,20,10.90
2017,05,28,01,21,10.90
2017,05,28,01,22,10.80
2017,05,28,01,23,10.80
2017,05,28,01,24,10.80
2017,05,28,01,25,10.80
2017,05,28,01,26,10.80
2017,05,28,01,27,10.80
2017,05,28,01,28,10.80
2017,05,28,01,29,10.80
2017,05,28,01,30,10.80
2017,05,28,01,31,10.80
2017,05,28,01,32,10.80
2017,05,28,01,33,10.80
2017,05,28,01,34,10.80
2017,05,28,01,35,10.90
2017,05,28,01,36,10.90
2017,05,28,01,37,10.90
2017,05,28,01,38,11.00
2017,05,28,01,39,11.00
2017,05,28,01,40,11.10
2017,05,28,01,41,11.30
2017,05,28,01,42,11.50
2017,05,28,01,43,11.60
2017,05,28,01,44,11.70
2017,05,28,01,45,11.80
2017,05,28,01,46,11.70
2017,05,28,01,47,11.70
2017,05,28,01,48,11.70
2017,05,28,01,49,11.60
2017,05,28,01,50,11.60
2017,05,28,01,51,11.60
2017,05,28,01,52,11.60
2017,05,28,01,53,11.60
2017,05,28,01,54,11.60
2017,05,28,01,55,11.60
2017,05,28,01,56,11.50
2017,05,28,01,57,11.50
2017,05,28,01,58,11.50
2017,05,28,01,59,11.50
2017,05,28,02,00,11.50
2017,05,28,02,01,11.50
2017,05,28,02,02,11.50
2017,05,28,02,03,11.60
2017,05,28,02,04,11.70
2017,05,28,02,05,11.70
2017,05,28,02,06,11.80
2017,05,28,02,07,11.90
2017,05,28,02,08,12.10
2017,05,28,02,09,12.20
2017,05,28,02,10,12.30
2017,05,28,02,11,12.40
2017,05,28,02,12,12.50
2017,05,28,02,13,12.60
2017,05,28,02,14,12.70
2017,05,28,02,15,12.80
2017,05,28,02,16,12.90
2017,05,28,02,17,13.00
2017,05,28,02,18,13.10
2017,05,28,02,19,13.10
2017,05,28,02,20,13.20
2017,05,28,02,21,13.20
2017,05,28,02,22,13.30
2017,05,28,02,23,13.30
2017,05,28,02,24,13.30
2017,05,28,02,25,13.40
2017,05,28,02,26,13.40
2017,05,28,02,27,13.40
2017,05,28,02,28,13.40
2017,05,28,02,29,13.40
2017,05,28,02,30,13.40
2017,05,28,02,31,13.30
2017,05,28,02,32,13.20
2017,05,28,02,33,13.20
2017,05,28,02,34,13.10
2017,05,28,02,35,12.90
2017,05,28,02,36,12.80
2017,05,28,02,37,12.80
2017,05,28,02,38,12.70
2017,05,28,02,39,12.70
2017,05,28,02,40,12.70
2017,05,28,02,41,12.70
2017,05,28,02,42,12.70
2017,05,28,02,43,12.70
2017,05,28,02,44,12.70
2017,05,28,02,45,12.80
2017,05,28,02,46,12.70
2017,05,28,02,47,12.70
2017,05,28,02,48,12.70
2017,05,28,02,49,12.60
2017,05,28,02,50,12.60
2017,05,28,02,51,12.50
2017,05,28,02,52,12.40
2017,05,28,02,53,12.40
2017,05,28,02,54,12.30
2017,05,28,02,55,12.20
2017,05,28,02,56,12.20
2017,05,28,02,57,12.20
2017,05,28,02,58,12.10
2017,05,28,02,59,12.10
2017,05,28,03,00,12.10
2017,05,28,03,01,12.10
2017,05,28,03,02,12.00
2017,05,28,03,03,12.00
2017,05,28,03,06,11.90
2017,05,28,03,07,11.80
2017,05,28,03,08,11.80
2017,05,28,03,09,11.80
2017,05,28,03,10,11.70
2017,05,28,03,11,11.70
2017,05,28,03,12,11.60
2017,05,28,03,13,11.60
2017,05,28,03,14,11.60
2017,05,28,03,15,11.50
2017,05,28,03,16,11.40
2017,05,28,03,17,11.40
2017,05,28,03,18,11.40
2017,05,28,03,19,11.30
2017,05,28,03,20,11.30
2017,05,28,03,21,11.20
2017,05,28,03,22,11.20
2017,05,28,03,23,11.20
2017,05,28,03,24,11.20
2017,05,28,03,25,11.20
2017,05,28,03,26,11.20
2017,05,28,03,27,11.20
2017,05,28,03,28,11.20
2017,05,28,03,29,11.20
2017,05,28,03,30,11.20
2017,05,28,03,31,11.20
2017,05,28,03,32,11.20
2017,05,28,03,33,11.10
2017,05,28,03,34,11.10
2017,05,28,03,35,11.00
2017,05,28,03,36,11.00
2017,05,28,03,37,11.00
2017,05,28,03,38,11.00
2017,05,28,03,39,10.90
2017,05,28,03,40,10.90
2017,05,28,03,41,10.90
2017,05,28,03,42,10.90
2017,05,28,03,43,10.90
2017,05,28,03,44,11.00
2017,05,28,03,45,11.10
2017,05,28,03,46,11.20
2017,05,28,03,47,11.20
2017,05,28,03,48,11.20
2017,05,28,03,49,11.20
2017,05,28,03,50,11.20
2017,05,28,03,51,11.20
2017,05,28,03,52,11.20
2017,05,28,03,53,11.20
2017,05,28,03,54,11.20
2017,05,28,03,55,11.20
2017,05,28,03,56,11.20
2017,05,28,03,57,11.20
2017,05,28,03,58,11.20
2017,05,28,03,59,11.10
2017,05,28,04,00,11.10
2017,05,28,04,01,11.10
2017,05,28,04,02,11.10
2017,05,28,04,03,11.10
2017,05,28,04,04,11.00
2017,05,28,04,05,11.00
2017,05,28,04,06,11.00
2017,05,28,04,07,11.00
2017,05,28,04,08,10.90
2017,05,28,04,09,10.90
2017,05,28,04,10,10.90
2017,05,28,04,11,10.90
2017,05,28,04,12,10.90
2017,05,28,04,13,11.00
2017,05,28,04,14,11.00
2017,05,28,04,15,11.00
2017,05,28,04,16,11.10
2017,05,28,04,17,11.10
2017,05,28,04,18,11.10
2017,05,28,04,19,11.10
2017,05,28,04,20,11.10
2017,05,28,04,21,11.10
2017,05,28,04,22,11.10
2017,05,28,04,23,11.10
2017,05,28,04,24,11.10
2017,05,28,04,25,11.10
2017,05,28,04,26,11.10
2017,05,28,04,27,11.10
2017,05,28,04,28,11.10
2017,05,28,04,29,11.10
2017,05,28,04,30,11.10
2017,05,28,04,31,11.00
2017,05,28,04,32,11.10
2017,05,28,04,33,11.10
2017,05,28,04,34,11.10
2017,05,28,04,35,11.20
2017,05,28,04,36,11.20
2017,05,28,04,37,11.30
2017,05,28,04,38,11.30
2017,05,28,04,39,11.30
2017,05,28,04,40,11.30
2017,05,28,04,41,11.40
2017,05,28,04,42,11.40
2017,05,28,04,43,11.30
2017,05,28,04,44,11.30
2017,05,28,04,45,11.30
2017,05,28,04,46,11.30
2017,05,28,04,47,11.20
2017,05,28,04,48,11.20
2017,05,28,04,49,11.20
2017,05,28,04,50,11.20
2017,05,28,04,51,11.20
2017,05,28,04,52,11.20
2017,05,28,04,53,11.20
2017,05,28,04,54,11.20
2017,05,28,04,55,11.20
2017,05,28,04,56,11.20
2017,05,28,04,57,11.20
2017,05,28,04,58,11.20
2017,05,28,04,59,11.10
2017,05,28,05,00,11.10
2017,05,28,05,01,11.10
2017,05,28,05,02,11.10
2017,05,28,05,03,11.10
2017,05,28,05,04,11.10
2017,05,28,05,05,11.10
2017,05,28,05,06,11.10
2017,05,28,05,07,11.10
2017,05,28,05,08,11.10
2017,05,28,05,09,11.10
2017,05,28,05,10,11.10
2017,05,28,05,11,11.10
2017,05,28,05,12,11.10
2017,05,28,05,13,11.10
2017,05,28,05,14,11.20
2017,05,28,05,15,11.20
2017,05,28,05,16,11.20
2017,05,28,05,17,11.10
2017,05,28,05,18,11.00
2017,05,28,05,19,10.90
2017,05,28,05,20,10.80
2017,05,28,05,21,10.80
2017,05,28,05,22,10.70
2017,05,28,05,23,10.70
2017,05,28,05,24,10.70
2017,05,28,05,25,10.70
2017,05,28,05,26,10.60
2017,05,28,05,27,10.60
2017,05,28,05,28,10.60
2017,05,28,05,29,10.60
2017,05,28,05,30,10.50
2017,05,28,05,31,10.60
2017,05,28,05,32,10.60
2017,05,28,05,33,10.60
2017,05,28,05,34,10.70
2017,05,28,05,35,10.70
2017,05,28,05,36,10.70
2017,05,28,05,37,10.70
2017,05,28,05,38,10.80
2017,05,28,05,39,10.70
2017,05,28,05,40,10.70
2017,05,28,05,41,10.70
2017,05,28,05,42,10.70
2017,05,28,05,43,10.70
2017,05,28,05,44,10.70
2017,05,28,05,45,10.70
2017,05,28,05,46,10.70
2017,05,28,05,47,10.70
2017,05,28,05,48,10.70
2017,05,28,05,49,10.70
2017,05,28,05,50,10.60
2017,05,28,05,51,10.50
2017,05,28,05,52,10.40
2017,05,28,05,53,10.40
2017,05,28,05,54,10.30
2017,05,28,05,55,10.20
2017,05,28,05,56,10.20
2017,05,28,05,57,10.10
2017,05,28,05,58,10.10
2017,05,28,05,59,10.10
2017,05,28,06,00,10.00
2017,05,28,06,01,10.00
2017,05,28,06,02,10.00
2017,05,28,06,03,10.00
2017,05,28,06,04,10.00
2017,05,28,06,05,9.90
2017,05,28,06,06,10.00
2017,05,28,06,07,10.00
2017,05,28,06,08,10.00
2017,05,28,06,09,10.00
2017,05,28,06,10,10.00
2017,05,28,06,11,10.00
2017,05,28,06,12,10.00
2017,05,28,06,13,10.00
2017,05,28,06,14,10.10
2017,05,28,06,15,10.10
2017,05,28,06,16,10.10
2017,05,28,06,17,10.10
2017,05,28,06,18,10.10
2017,05,28,06,19,10.10
2017,05,28,06,20,10.10
2017,05,28,06,21,10.10
2017,05,28,06,22,10.10
2017,05,28,06,23,10.10
2017,05,28,06,24,10.10
2017,05,28,06,25,10.10
2017,05,28,06,26,10.10
2017,05,28,06,27,10.10
2017,05,28,06,28,10.10
2017,05,28,06,29,10.10
2017,05,28,06,30,10.10
2017,05,28,06,31,10.10
2017,05,28,06,32,10.10
2017,05,28,06,33,10.10
2017,05,28,06,34,10.10
2017,05,28,06,35,10.10
2017,05,28,06,36,10.20
2017,05,28,06,37,10.20
2017,05,28,06,38,10.20
2017,05,28,06,39,10.20
2017,05,28,06,40,10.30
2017,05,28,06,41,10.30
2017,05,28,06,42,10.40
2017,05,28,06,43,10.50
2017,05,28,06,44,10.50
2017,05,28,06,45,10.60
2017,05,28,06,46,10.70
2017,05,28,06,47,10.70
2017,05,28,06,48,10.70
2017,05,28,06,49,10.70
2017,05,28,06,50,10.70
2017,05,28,06,51,10.70
2017,05,28,06,52,10.70
2017,05,28,06,53,10.70
2017,05,28,06,54,10.70
2017,05,28,06,55,10.70
2017,05,28,06,56,10.60
2017,05,28,06,57,10.60
2017,05,28,06,58,10.60
2017,05,28,06,59,10.60
2017,05,28,07,00,10.60
2017,05,28,07,01,10.60
2017,05,28,07,02,10.60
2017,05,28,07,03,10.60
2017,05,28,07,04,10.70
2017,05,28,07,05,10.70
2017,05,28,07,06,10.70
2017,05,28,07,07,10.70
2017,05,28,07,08,10.60
2017,05,28,07,09,10.60
2017,05,28,07,10,10.70
2017,05,28,07,11,10.60
2017,05,28,07,12,10.70
2017,05,28,07,13,10.70
2017,05,28,07,14,10.70
2017,05,28,07,15,10.70
2017,05,28,07,16,10.70
2017,05,28,07,17,10.70
2017,05,28,07,18,10.80
2017,05,28,07,19,10.80
2017,05,28,07,20,10.80
2017,05,28,07,21,10.90
2017,05,28,07,22,11.00
2017,05,28,07,23,11.20
2017,05,28,07,24,11.40
2017,05,28,07,25,11.50
2017,05,28,07,26,11.70
2017,05,28,07,27,11.90
2017,05,28,07,28,12.00
2017,05,28,07,29,12.20
2017,05,28,07,30,12.30
2017,05,28,07,31,12.40
2017,05,28,07,32,12.50
2017,05,28,07,33,12.50
2017,05,28,07,34,12.60
2017,05,28,07,35,12.60
2017,05,28,07,36,12.70
2017,05,28,07,37,12.80
2017,05,28,07,38,12.90
2017,05,28,07,39,13.00
2017,05,28,07,40,13.20
2017,05,28,07,41,13.30
2017,05,28,07,42,13.40
2017,05,28,07,43,13.50
2017,05,28,07,44,13.60
2017,05,28,07,45,13.60
2017,05,28,07,46,13.70
2017,05,28,07,47,13.70
2017,05,28,07,48,13.70
2017,05,28,07,49,13.70
2017,05,28,07,50,13.60
2017,05,28,07,51,13.40
2017,05,28,07,52,13.20
2017,05,28,07,53,12.90
2017,05,28,07,54,12.50
2017,05,28,07,55,12.20
2017,05,28,07,56,11.90
2017,05,28,07,57,11.70
2017,05,28,07,58,11.60
2017,05,28,07,59,11.50
2017,05,28,08,00,11.50
2017,05,28,08,01,11.40
2017,05,28,08,02,11.30
2017,05,28,08,03,11.30
2017,05,28,08,04,11.20
2017,05,28,08,05,11.20
2017,05,28,08,06,11.10
2017,05,28,08,07,11.10
2017,05,28,08,08,11.00
2017,05,28,08,09,11.00
2017,05,28,08,10,10.90
2017,05,28,08,11,10.80
2017,05,28,08,12,10.80
2017,05,28,08,13,10.70
2017,05,28,08,14,10.60
2017,05,28,08,15,10.60
2017,05,28,08,16,10.50
2017,05,28,08,17,10.50
2017,05,28,08,18,10.40
2017,05,28,08,19,10.40
2017,05,28,08,20,10.30
2017,05,28,08,21,10.30
2017,05,28,08,22,10.30
2017,05,28,08,23,10.30
2017,05,28,08,24,10.30
2017,05,28,08,25,10.30
2017,05,28,08,26,10.20
2017,05,28,08,27,10.20
2017,05,28,08,28,10.20
2017,05,28,08,29,10.20
2017,05,28,08,30,10.20
2017,05,28,08,31,10.20
2017,05,28,08,32,10.20
2017,05,28,08,33,10.20
2017,05,28,08,34,10.20
2017,05,28,08,35,10.20
2017,05,28,08,36,10.20
2017,05,28,08,37,10.20
2017,05,28,08,38,10.20
2017,05,28,08,39,10.20
2017,05,28,08,40,10.20
2017,05,28,08,41,10.20
2017,05,28,08,42,10.20
2017,05,28,08,43,10.20
2017,05,28,08,44,10.20
2017,05,28,08,45,10.20
2017,05,28,08,46,10.20
2017,05,28,08,47,10.20
2017,05,28,08,48,10.20
2017,05,28,08,49,10.20
2017,05,28,08,50,10.30
2017,05,28,08,51,10.30
2017,05,28,08,52,10.30
2017,05,28,08,53,10.30
2017,05,28,08,54,10.30
2017,05,28,08,55,10.30
2017,05,28,08,56,10.30
2017,05,28,08,57,10.30
2017,05,28,08,58,10.30
2017,05,28,08,59,10.30
2017,05,28,09,00,10.30
2017,05,28,09,01,10.30
2017,05,28,09,02,10.30
2017,05,28,09,03,10.30
2017,05,28,09,04,10.30
2017,05,28,09,05,10.30
2017,05,28,09,06,10.30
2017,05,28,09,07,10.30
2017,05,28,09,08,10.20
2017,05,28,09,09,10.20
2017,05,28,09,10,10.20
2017,05,28,09,11,10.20
2017,05,28,09,12,10.20
2017,05,28,09,13,10.20
2017,05,28,09,14,10.20
2017,05,28,09,15,10.20
2017,05,28,09,16,10.20
2017,05,28,09,17,10.20
2017,05,28,09,18,10.20
2017,05,28,09,19,10.20
2017,05,28,09,20,10.20
2017,05,28,09,21,10.20
2017,05,28,09,22,10.20
2017,05,28,09,23,10.20
2017,05,28,09,24,10.20
2017,05,28,09,25,10.20
2017,05,28,09,26,10.20
2017,05,28,09,27,10.20
2017,05,28,09,28,10.20
2017,05,28,09,29,10.20
2017,05,28,09,30,10.20
2017,05,28,09,31,10.20
2017,05,28,09,32,10.20
2017,05,28,09,33,10.10
2017,05,28,09,34,10.20
2017,05,28,09,35,10.20
2017,05,28,09,36,10.10
2017,05,28,09,37,10.10
2017,05,28,09,38,10.20
2017,05,28,09,39,10.20
2017,05,28,09,40,10.20
2017,05,28,09,41,10.20
2017,05,28,09,42,10.20
2017,05,28,09,43,10.20
2017,05,28,09,44,10.20
2017,05,28,09,45,10.20
2017,05,28,09,46,10.20
2017,05,28,09,47,10.20
2017,05,28,09,48,10.20
2017,05,28,09,49,10.20
2017,05,28,09,50,10.20
2017,05,28,09,51,10.20
2017,05,28,09,52,10.20
2017,05,28,09,53,10.20
2017,05,28,09,54,10.20
2017,05,28,09,55,10.20
2017,05,28,09,56,10.20
2017,05,28,09,57,10.20
2017,05,28,09,58,10.30
2017,05,28,09,59,10.30
2017,05,28,10,00,10.30
2017,05,28,10,01,10.30
2017,05,28,10,02,10.30
2017,05,28,10,03,10.30
2017,05,28,10,04,10.40
2017,05,28,10,05,10.40
2017,05,28,10,06,10.50
2017,05,28,10,07,10.60
2017,05,28,10,08,10.60
2017,05,28,10,09,10.60
2017,05,28,10,10,10.60
2017,05,28,10,11,10.60
2017,05,28,10,12,10.60
2017,05,28,10,13,10.60
2017,05,28,10,14,10.60
2017,05,28,10,15,10.60
2017,05,28,10,16,10.60
2017,05,28,10,17,10.60
2017,05,28,10,18,10.60
2017,05,28,10,19,10.60
2017,05,28,10,36,11.40
2017,05,28,10,37,11.30
2017,05,28,10,38,11.20
2017,05,28,10,39,11.20
2017,05,28,10,40,11.10
2017,05,28,10,41,11.00
2017,05,28,10,42,10.90
2017,05,28,10,43,10.90
2017,05,28,10,44,10.80
2017,05,28,10,45,10.70
2017,05,28,10,46,10.70
2017,05,28,10,47,10.70
2017,05,28,10,48,10.60
2017,05,28,10,49,10.60
2017,05,28,10,50,10.60
2017,05,28,10,51,10.50
2017,05,28,10,52,10.50
2017,05,28,10,53,10.50
2017,05,28,10,54,10.50
2017,05,28,10,55,10.60
2017,05,28,10,56,10.60
2017,05,28,10,57,10.60
2017,05,28,10,58,10.60
2017,05,28,10,59,10.60
2017,05,28,11,00,10.50
2017,05,28,11,01,10.50
2017,05,28,11,02,10.50
2017,05,28,11,03,10.50
2017,05,28,11,04,10.40
2017,05,28,11,05,10.40
2017,05,28,11,06,10.40
2017,05,28,11,07,10.40
2017,05,28,11,08,10.40
2017,05,28,11,09,10.30
2017,05,28,11,10,10.30
2017,05,28,11,11,10.30
2017,05,28,11,12,10.30
2017,05,28,11,13,10.30
2017,05,28,11,14,10.30
2017,05,28,11,15,10.30
2017,05,28,11,16,10.30
2017,05,28,11,17,10.30
2017,05,28,11,18,10.40
2017,05,28,11,19,10.40
2017,05,28,11,20,10.40
2017,05,28,11,21,10.40
2017,05,28,11,22,10.50
2017,05,28,11,23,10.50
2017,05,28,11,24,10.50
2017,05,28,11,25,10.50
2017,05,28,11,26,10.50
2017,05,28,11,27,10.50
2017,05,28,11,28,10.50
2017,05,28,11,29,10.60
2017,05,28,11,30,10.60
2017,05,28,11,31,10.50
2017,05,28,11,32,10.50
2017,05,28,11,33,10.50
2017,05,28,11,34,10.40
2017,05,28,11,35,10.40
2017,05,28,11,36,10.40
2017,05,28,11,37,10.30
2017,05,28,11,38,10.30
2017,05,28,11,39,10.20
2017,05,28,11,40,10.20
2017,05,28,11,41,10.20
2017,05,28,11,42,10.20
2017,05,28,11,43,10.20
2017,05,28,11,44,10.20
2017,05,28,11,45,10.20
2017,05,28,11,46,10.20
2017,05,28,11,47,10.10
2017,05,28,11,48,10.10
2017,05,28,11,49,10.10
2017,05,28,11,50,10.10
2017,05,28,11,51,10.10
2017,05,28,11,52,10.10
2017,05,28,11,53,10.10
2017,05,28,11,54,10.10
2017,05,28,11,55,10.10
2017,05,28,11,56,10.10
2017,05,28,11,57,10.00
2017,05,28,11,58,10.00
2017,05,28,11,59,10.00
2017,05,28,12,00,10.00
2017,05,28,12,01,10.00
2017,05,28,12,02,10.00
2017,05,28,12,03,10.00
2017,05,28,12,04,10.00
2017,05,28,12,05,10.00
2017,05,28,12,06,10.00
2017,05,28,12,07,10.00
2017,05,28,12,08,10.00
2017,05,28,12,09,10.00
2017,05,28,12,10,10.00
2017,05,28,12,11,10.00
2017,05,28,12,12,9.90
2017,05,28,12,13,9.90
2017,05,28,12,14,10.00
2017,05,28,12,15,10.00
2017,05,28,12,16,9.90
2017,05,28,12,17,9.90
2017,05,28,12,18,9.90
2017,05,28,12,19,9.90
2017,05,28,12,20,9.90
2017,05,28,12,21,9.90
2017,05,28,12,22,9.90
2017,05,28,12,23,9.90
2017,05,28,12,24,9.90
2017,05,28,12,25,9.90
2017,05,28,12,26,9.90
2017,05,28,12,27,9.90
2017,05,28,12,28,9.90
2017,05,28,12,29,9.90
2017,05,28,12,30,9.90
2017,05,28,12,31,9.90
2017,05,28,12,32,9.90
2017,05,28,12,33,9.90
2017,05,28,12,34,9.90
2017,05,28,12,35,9.90
2017,05,28,12,36,9.90
2017,05,28,12,37,9.90
2017,05,28,12,38,9.90
2017,05,28,12,39,9.90
2017,05,28,12,40,9.90
2017,05,28,12,41,10.00
2017,05,28,12,42,10.00
2017,05,28,12,43,10.00
2017,05,28,12,44,10.00
2017,05,28,12,45,10.00
2017,05,28,12,46,10.00
2017,05,28,12,47,10.00
2017,05,28,12,48,10.00
2017,05,28,12,49,10.00
2017,05,28,12,50,10.00
2017,05,28,12,51,10.00
2017,05,28,12,52,10.00
2017,05,28,12,53,10.00
2017,05,28,12,54,10.00
2017,05,28,12,55,10.00
2017,05,28,12,56,10.00
2017,05,28,12,57,10.10
2017,05,28,12,58,10.10
2017,05,28,12,59,10.10
2017,05,28,13,00,10.10
2017,05,28,13,01,10.10
2017,05,28,13,02,10.10
2017,05,28,13,03,10.10
2017,05,28,13,04,10.10
2017,05,28,13,05,10.10
2017,05,28,13,06,10.10
2017,05,28,13,07,10.10
2017,05,28,13,08,10.10
2017,05,28,13,09,10.10
2017,05,28,13,10,10.10
2017,05,28,13,11,10.20
2017,05,28,13,12,10.20
2017,05,28,13,13,10.20
2017,05,28,13,14,10.20
2017,05,28,13,15,10.20
2017,05,28,13,16,10.20
2017,05,28,13,17,10.20
2017,05,28,13,18,10.20
2017,05,28,13,19,10.20
2017,05,28,13,20,10.20
2017,05,28,13,21,10.20
2017,05,28,13,22,10.20
2017,05,28,13,23,10.30
2017,05,28,13,24,10.30
2017,05,28,13,25,10.30
2017,05,28,13,26,10.30
2017,05,28,13,27,10.30
2017,05,28,13,28,10.30
2017,05,28,13,29,10.30
2017,05,28,13,30,10.30
2017,05,28,13,31,10.30
2017,05,28,13,32,10.30
2017,05,28,13,33,10.40
2017,05,28,13,34,10.40
2017,05,28,13,35,10.40
2017,05,28,13,36,10.40
2017,05,28,13,37,10.40
2017,05,28,13,38,10.40
2017,05,28,13,39,10.40
2017,05,28,13,40,10.40
2017,05,28,13,41,10.40
2017,05,28,13,42,10.40
2017,05,28,13,43,10.40
2017,05,28,13,44,10.40
2017,05,28,13,45,10.40
2017,05,28,13,46,10.40
2017,05,28,13,47,10.40
2017,05,28,13,48,10.50
2017,05,28,13,49,10.50
2017,05,28,13,50,10.50
2017,05,28,13,51,10.50
2017,05,28,13,52,10.50
2017,05,28,13,53,10.50
2017,05,28,13,54,10.50
2017,05,28,13,55,10.50
2017,05,28,13,56,10.50
2017,05,28,13,57,10.50
2017,05,28,13,58,10.50
2017,05,28,13,59,10.50
2017,05,28,14,00,10.60
2017,05,28,14,01,10.60
2017,05,28,14,02,10.50
2017,05,28,14,03,10.50
2017,05,28,14,04,10.50
2017,05,28,14,05,10.50
2017,05,28,14,06,10.50
2017,05,28,14,07,10.50
2017,05,28,14,08,10.50
2017,05,28,14,09,10.50
2017,05,28,14,10,10.50
2017,05,28,14,11,10.60
2017,05,28,14,12,10.60
2017,05,28,14,13,10.60
2017,05,28,14,14,10.60
2017,05,28,14,15,10.60
2017,05,28,14,16,10.60
2017,05,28,14,17,10.60
2017,05,28,14,18,10.60
2017,05,28,14,19,10.60
2017,05,28,14,20,10.60
2017,05,28,14,21,10.60
2017,05,28,14,22,10.60
2017,05,28,14,23,10.60
2017,05,28,14,24,10.60
2017,05,28,14,25,10.50
2017,05,28,14,26,10.50
2017,05,28,14,27,10.50
2017,05,28,14,28,10.50
2017,05,28,14,29,10.50
2017,05,28,14,30,10.50
2017,05,28,14,31,10.50
2017,05,28,14,32,10.50
2017,05,28,14,33,10.50
2017,05,28,14,34,10.50
2017,05,28,14,35,10.50
2017,05,28,14,36,10.50
2017,05,28,14,37,10.50
2017,05,28,14,38,10.50
2017,05,28,14,39,10.50
2017,05,28,14,40,10.50
2017,05,28,14,41,10.50
2017,05,28,14,42,10.50
2017,05,28,14,43,10.50
2017,05,28,14,44,10.50
2017,05,28,14,45,10.60
2017,05,28,14,46,10.60
2017,05,28,14,47,10.60
2017,05,28,14,48,10.60
2017,05,28,14,49,10.60
2017,05,28,14,50,10.70
2017,05,28,14,51,10.70
2017,05,28,14,52,10.70
2017,05,28,14,53,10.70
2017,05,28,14,54,10.80
2017,05,28,14,55,10.80
2017,05,28,14,56,10.80
2017,05,28,14,57,10.80
2017,05,28,14,58,10.90
2017,05,28,14,59,10.90
2017,05,28,15,00,10.90
2017,05,28,15,01,11.00
2017,05,28,15,02,11.00
2017,05,28,15,03,11.00
2017,05,28,15,04,11.00
2017,05,28,15,05,11.00
2017,05,28,15,06,11.00
2017,05,28,15,07,11.00
2017,05,28,15,08,10.90
2017,05,28,15,09,10.90
2017,05,28,15,10,10.90
2017,05,28,15,11,10.90
2017,05,28,15,12,10.90
2017,05,28,15,13,10.90
2017,05,28,15,14,10.90
2017,05,28,15,15,10.90
2017,05,28,15,16,10.90
2017,05,28,15,17,10.90
2017,05,28,15,18,10.90
2017,05,28,15,19,10.90
2017,05,28,15,20,10.90
2017,05,28,15,21,10.90
2017,05,28,15,22,10.90
2017,05,28,15,23,10.90
2017,05,28,15,24,10.90
2017,05,28,15,25,10.90
2017,05,28,15,26,10.90
2017,05,28,15,27,10.90
2017,05,28,15,28,10.90
2017,05,28,15,29,10.90
2017,05,28,15,30,10.90
2017,05,28,15,31,10.90
2017,05,28,15,32,10.90
2017,05,28,15,33,10.90
2017,05,28,15,34,10.90
2017,05,28,15,35,10.90
2017,05,28,15,36,10.90
2017,05,28,15,37,10.90
2017,05,28,15,38,11.00
2017,05,28,15,39,11.00
2017,05,28,15,40,11.00
2017,05,28,15,41,11.00
2017,05,28,15,42,11.00
2017,05,28,15,43,11.00
2017,05,28,15,44,11.00
2017,05,28,15,45,11.00
2017,05,28,15,46,11.00
2017,05,28,15,47,11.00
2017,05,28,15,48,11.10
2017,05,28,15,49,11.10
2017,05,28,15,50,11.10
2017,05,28,15,51,11.00
2017,05,28,15,52,11.00
2017,05,28,15,53,11.00
2017,05,28,15,54,11.00
2017,05,28,15,55,11.00
2017,05,28,15,56,11.00
2017,05,28,15,57,11.00
2017,05,28,15,58,11.00
2017,05,28,15,59,11.00
2017,05,28,16,00,11.00
2017,05,28,16,01,11.00
2017,05,28,16,02,11.00
2017,05,28,16,03,10.90
2017,05,28,16,04,10.90
2017,05,28,16,05,10.90
2017,05,28,16,06,10.90
2017,05,28,16,07,11.00
2017,05,28,16,08,11.00
2017,05,28,16,09,11.00
2017,05,28,16,10,11.00
2017,05,28,16,11,11.00
2017,05,28,16,12,11.00
2017,05,28,16,13,11.00
2017,05,28,16,14,11.00
2017,05,28,16,15,11.10
2017,05,28,16,16,11.10
2017,05,28,16,17,11.10
2017,05,28,16,18,11.00
2017,05,28,16,19,11.00
2017,05,28,16,20,11.00
2017,05,28,16,21,10.90
2017,05,28,16,22,10.90
2017,05,28,16,23,10.90
2017,05,28,16,24,10.90
2017,05,28,16,25,10.90
2017,05,28,16,26,10.90
2017,05,28,16,27,10.90
2017,05,28,16,28,10.90
2017,05,28,16,29,11.00
2017,05,28,16,30,11.00
2017,05,28,16,31,11.00
2017,05,28,16,32,11.00
2017,05,28,16,33,11.00
2017,05,28,16,34,11.00
2017,05,28,16,35,11.00
2017,05,28,16,36,11.10
2017,05,28,16,37,11.10
2017,05,28,16,38,11.10
2017,05,28,16,39,11.10
2017,05,28,16,40,11.10
2017,05,28,16,41,11.10
2017,05,28,16,42,11.10
2017,05,28,16,43,11.10
2017,05,28,16,44,11.00
2017,05,28,16,45,11.00
2017,05,28,16,46,11.00
2017,05,28,16,47,11.00
2017,05,28,16,48,11.00
2017,05,28,16,49,11.00
2017,05,28,16,50,11.00
2017,05,28,16,51,11.00
2017,05,28,16,52,11.10
2017,05,28,16,53,11.10
2017,05,28,16,54,11.10
2017,05,28,16,55,11.10
2017,05,28,16,56,11.20
2017,05,28,16,57,11.20
2017,05,28,16,58,11.20
2017,05,28,16,59,11.10
2017,05,28,17,00,11.10
2017,05,28,17,01,11.10
2017,05,28,17,02,11.10
2017,05,28,17,03,11.10
2017,05,28,17,04,11.10
2017,05,28,17,05,11.00
2017,05,28,17,06,11.00
2017,05,28,17,07,11.00
2017,05,28,17,08,11.00
2017,05,28,17,09,11.00
2017,05,28,17,10,11.00
2017,05,28,17,11,11.00
2017,05,28,17,12,11.10
2017,05,28,17,13,11.10
2017,05,28,17,14,11.10
2017,05,28,17,15,11.20
2017,05,28,17,16,11.20
2017,05,28,17,17,11.20
2017,05,28,17,18,11.20
2017,05,28,17,19,11.30
2017,05,28,17,20,11.30
2017,05,28,17,21,11.30
2017,05,28,17,22,11.40
2017,05,28,17,23,11.40
2017,05,28,17,24,11.40
2017,05,28,17,25,11.30
2017,05,28,17,26,11.30
2017,05,28,17,27,11.30
2017,05,28,17,28,11.30
2017,05,28,17,29,11.20
2017,05,28,17,30,11.20
2017,05,28,17,31,11.20
2017,05,28,17,32,11.20
2017,05,28,17,33,11.20
2017,05,28,17,34,11.20
2017,05,28,17,35,11.20
2017,05,28,17,36,11.20
2017,05,28,17,37,11.20
2017,05,28,17,38,11.20